This is the latest recevied weather packets stored in our database for station/object KE8CZD. If no packets are shown the sender has not sent any weather packets the latest 10 day(s).
| Time | Temp. | Humidity | Pressure | Rain* | Wind** | Luminosity | Snow |
|---|---|---|---|---|---|---|---|
| 1777504908 | 10.56° C | 90% | 1007.8 hPa | 0 mm | - | - | - |
| 1777504548 | 10.56° C | 90% | 1007.9 hPa | 0 mm | - | - | - |
| 1777504188 | 10.56° C | 89% | 1007.8 hPa | 0 mm | - | - | - |
| 1777503830 | 10.56° C | 91% | 1007.8 hPa | 0 mm | - | - | - |
| 1777503468 | 10.56° C | 91% | 1007.8 hPa | 0 mm | - | - | - |
| 1777503108 | 10.56° C | 91% | 1007.7 hPa | 0.25 mm | - | - | - |
| 1777502748 | 10.56° C | 91% | 1007.9 hPa | 0.25 mm | - | - | - |
| 1777502388 | 11.11° C | 91% | 1007.7 hPa | 0.25 mm | - | - | - |
| 1777502028 | 10.56° C | 91% | 1007.7 hPa | 0.51 mm | - | - | - |
| 1777501668 | 10.56° C | 91% | 1007.6 hPa | 0.51 mm | - | - | - |
| 1777501308 | 10.56° C | 91% | 1007.6 hPa | 0.51 mm | - | - | - |
| 1777500948 | 10.56° C | 91% | 1007.7 hPa | 0.51 mm | - | - | - |
| 1777500588 | 11.11° C | 90% | 1007.6 hPa | 0.51 mm | - | - | - |
| 1777500228 | 10.56° C | 91% | 1007.5 hPa | 0.51 mm | - | - | - |
| 1777499868 | 11.11° C | 91% | 1007.6 hPa | 0.51 mm | - | - | - |
| 1777499508 | 11.11° C | 91% | 1007.6 hPa | 0.51 mm | - | - | - |
| 1777499148 | 10.56° C | 91% | 0 hPa | 0.51 mm | - | - | - |
| 1777498789 | 10.56° C | 92% | 1007.4 hPa | 0.25 mm | - | - | - |
| 1777498429 | 10.56° C | 91% | 1007.5 hPa | 0.25 mm | - | - | - |
| 1777498068 | 10° C | 91% | 1007.5 hPa | 0.25 mm | - | - | - |
| 1777497708 | 10° C | 90% | 1007.6 hPa | 0.25 mm | - | - | - |
| 1777497350 | 10° C | 88% | 1007.6 hPa | 0.25 mm | - | - | - |
| 1777496988 | 10.56° C | 82% | 1007.5 hPa | 0.25 mm | - | - | - |
| 1777496628 | 10.56° C | 77% | 1007.5 hPa | 0 mm | - | - | - |
| 1777496268 | 10.56° C | 74% | 1007.4 hPa | 0 mm | - | - | - |
* Rain latest hour (hover to see other rain measurements)
** Current wind speed in m/s (hover to see current wind gust speed)